Cloverdale, Indiana, United States (46120)
Lat: 39.51N, Lon: 86.79W
Wx Zone: INZ045
Local Info
Past Weather Observations for Tuesday, August 26, 2014

NOTE: This archive is for the closest National Weather Service station to Cloverdale. Information may differ from the station used for current weather conditions.

Click here for Long-term Archive

Time Weather Temperature Dewpoint Humidity Pressure Winds Precip Visibility
23:53
Clear
70°F / 21°C 68°F / 20°C 94% 30.09 in
(1019 mb)
Calm - 7SM
22:53
Clear
70°F / 21°C 68°F / 20°C 94% 30.09 in
(1019 mb)
Calm - 7SM
21:53
Clear
73°F / 23°C 70°F / 21°C 89% 30.09 in
(1019 mb)
SSE 3.5 mph
(SSE 6 kph)
- 8SM
20:53
Clear
73°F / 23°C 70°F / 21°C 89% 30.09 in
(1019 mb)
N 4.6 mph
(N 7 kph)
- 10SM
19:53
Clear
75°F / 24°C 70°F / 21°C 83% 30.06 in
(1018 mb)
S 4.6 mph
(S 7 kph)
- 10SM
18:53
Clear
77°F / 25°C 72°F / 22°C 83% 30.09 in
(1019 mb)
Calm - 10SM
18:01
Clear
81°F / 27°C 70°F / 21°C 70% 30.09 in
(1019 mb)
N 6.9 mph
(N 11 kph)
- 10SM
17:53
Clear
Thunder Storms
79°F / 26°C 70°F / 21°C 74% 30.09 in
(1019 mb)
N 8.1 mph
(N 13 kph)
- 10SM
17:51
Clear
Thunder Storms
79°F / 26°C 70°F / 21°C 74% 30.09 in
(1019 mb)
NNE 9.2 mph
(NNE 15 kph)
- 10SM
17:20
Mostly Cloudy
Thunder Storms
81°F / 27°C 70°F / 21°C 70% 30.09 in
(1019 mb)
NE 16.1 mph
(NE 26 kph)
- 10SM
16:53
Partly Cloudy
90°F / 32°C 72°F / 22°C 55% 30.09 in
(1019 mb)
N 8.1 mph
(N 13 kph)
- 10SM
15:53
Partly Cloudy
91°F / 33°C 73°F / 23°C 56% 30.09 in
(1019 mb)
NNE 5.8 mph
(NNE 9 kph)
- 9SM
14:53
Partly Cloudy
91°F / 33°C 72°F / 22°C 52% 30.09 in
(1019 mb)
Calm - 10SM
13:53
Clear
88°F / 31°C 72°F / 22°C 59% 30.09 in
(1019 mb)
Calm - 10SM
12:53
Partly Cloudy
88°F / 31°C 73°F / 23°C 62% 30.12 in
(1020 mb)
WNW 4.6 mph
(WNW 7 kph)
- 10SM
11:53
Partly Cloudy
90°F / 32°C 72°F / 22°C 55% 30.15 in
(1021 mb)
WNW 6.9 mph
(WNW 11 kph)
- 10SM
10:53
Partly Cloudy
86°F / 30°C 75°F / 24°C 70% 30.15 in
(1021 mb)
W 6.9 mph
(W 11 kph)
0.00 in
(0.00 mm)
9SM
09:53
Fair
84°F / 29°C 73°F / 23°C 70% 30.15 in
(1021 mb)
Calm -
08:53
Clear
81°F / 27°C 72°F / 22°C 74% 30.15 in
(1021 mb)
Calm - 10SM
07:53
Clear
75°F / 24°C 70°F / 21°C 83% 30.15 in
(1021 mb)
Calm - 10SM
06:53
Clear
Fog And Mist
70°F / 21°C 66°F / 19°C 88% 30.12 in
(1020 mb)
Calm - 5SM
06:50
Clear
Fog And Mist
68°F / 20°C 66°F / 19°C 94% 30.12 in
(1020 mb)
Calm - 4SM
06:43
Clear
Fog And Mist
68°F / 20°C 66°F / 19°C 94% 30.12 in
(1020 mb)
Calm - 2 1/2SM
05:53
Clear
Fog And Mist
66°F / 19°C 64°F / 18°C 94% 30.09 in
(1019 mb)
Calm - 5SM
04:53
Clear
68°F / 20°C 66°F / 19°C 94% 30.06 in
(1018 mb)
Calm - 9SM
03:53
Clear
Fog And Mist
68°F / 20°C 66°F / 19°C 94% 30.06 in
(1018 mb)
Calm - 6SM
02:53
Clear
70°F / 21°C 66°F / 19°C 88% 30.06 in
(1018 mb)
Calm - 9SM
01:53
Clear
72°F / 22°C 66°F / 19°C 83% 30.06 in
(1018 mb)
Calm - 10SM
00:53
Clear
73°F / 23°C 66°F / 19°C 78% 30.04 in
(1017 mb)
SSE 3.5 mph
(SSE 6 kph)
- 10SM
Time Weather Temperature Dewpoint Humidity Pressure Winds Precip Visibility


Weather for websites

WeatherForYou.com, LLC is not responsible for any damages or problems caused by this service. Current weather conditions are obtained from the closest station including government and personal stations which may have varying degrees of accuracy. Weather forecasts are derived from the NOAA NDFD. Like all things, this site belongs to Jesus Christ... He just trusts me to maintain it. If you have any questions or comments email webmaster@weatherforyou.com

Copyright © 2014, WeatherForYou.com LLC. All rights reserved.